BOH weather

Bournemouth Airport
Bournemouth, England, United Kingdom

Public forecast

Using degrees Celsius for public forecast. Weather courtesy of forecast.io.

Current aviation weather report (METAR) for Bournemouth Airport

Retrieved 2019/11/21 15:20 UTC (7 minutes ago):

EGHH 211520Z 11010KT 3000 -RA BR BKN012 08/07 Q0998

Aviation forecast (TAF) for Bournemouth Airport

Forecast is more than 12 hours old.

Retrieved 2013/12/01 21:21 UTC (6 years ago):

TAF TAF EGHH 010016Z 3021/0106 CNL